Find Starlink 32551

NORAD ID: 62166 Int'l Des: 2024-225 Owner: SPXS Country: US Constellation: starlink operational
LEOCIRCULAR

リアルタイム位置

3D地球を読み込み中...

Starlink 32551について

説明を読み込み中...

次回通過

Passes for default location (London). Set your location on the main map for personalized predictions.

高度履歴

Loading altitude history...

軌道要素

1 62166U 24225D 26125.50001156 .00045803 00000-0 38231-2 0 9999
2 62166 70.0020 21.1528 0002805 267.6660 192.0458 14.98313390 5802
Epoch: May 5, 2026 • Age: 12 hours

現在のステータス

高度 574.1 km
速度 7.57 km/s
衛星直下点 2.03°N, 18.09°W
打ち上げ日 Nov 30, 2024
運用期間 1.4 years
タイプ internet

技術仕様

分類 Payload
質量 730.00 kg
乾燥質量 700.00 kg
総質量 730.00 kg
長さ 0.30 m
直径 4.10 m
スパン 29.00 m
形状 Box + pan
製造者 SPXS
バスタイプ Starlink V2M
フェーズステータス In Orbit
所有者/国 SPXS/US

Most Searched